Location: Kuffner-Sternwarte
(48.2130°N, 16.2960°E)
Time: 22:09:50
(UTC+01:00)

COROT - Pass Details

Date: 17 January 2018
Orbit: 599 x 890 km, 90.0° (Epoch: 19 January)

Event Time Altitude Azimuth Distance (km) Brightness Sun altitude
Rises 05:06:06 0° 1° (N) 2,860 9.0 -25.0°
Enters shadow 05:06:29 - 1° (N) 2,702 8.8 -24.9°
Exits shadow 05:11:59 68° 4° (N) 661 5.6 -24.0°
Maximum altitude 05:12:32 89° 81° (E) 617 5.4 -23.9°
Drops below altitude 10° 05:16:54 10° 183° (S) 2,004 8.2 -23.2°
Sets 05:19:09 0° 183° (S) 2,940 9.1 -22.8°
